sat.trackr.live / text

‹ back to catalog

TRANSPORTER-16 OBJECT AD

NORAD 68443 · 2026-067AD

PAYLOAD ACTIVE UNKNOWN

§ Identity

Operator
Country
TBD
Launch date
2026-03-30
Launch site
AFWTR
Launch vehicle
Mass (kg)
RCS (m²)

External: N2YO · Heavens-Above · Gunter

§ Orbital elements

Epoch: 2026-05-24T20:06:12.270528Z

Period
94.90 min
Inclination
97.4532°
Eccentricity
0.0005772
Mean motion
15.17365297 rev/d
Perigee alt
509.8 km
Apogee alt
517.8 km
Semi-major
6,891.9 km
B*
2.2288e-4
RAAN
103.5801°
Arg perigee
135.5546°
Mean anomaly
224.6152°
Rev number
839

§ Raw data

TRANSPORTER-16 OBJECT AD1 68443U 26067AD  26144.83764202  .00004385  00000+0  22288-3 0  99992 68443  97.4532 103.5801 0005772 135.5546 224.6152 15.17365297  8393

JSON: /api/v1/satellites/68443 · /tle

For live sub-satellite position, see the globe view (requires WebGL).

§ Visibility from observer

Set your observer location to see the next 7 days of passes ≥ 10°. The values pass through the URL so the page stays shareable.

No JS? Fill the form by hand. The geolocation button needs JavaScript.